| time (UTC) | temp C | wind direction | speed KPH | gust KPH | rain 1hr cm | rain 24hr cm | rain mn cm | humidity % | barometer mb |
| 20260508041550 | 18 | 38 | 0.0 | 3.2 | 0.00 | 0.00 | 0.00 | 26 | 1015.1 |
| 20260508041050 | 18 | 38 | 0.0 | 6.4 | 0.00 | 0.00 | 0.00 | 27 | 1015.1 |
| 20260508040550 | 18 | 38 | 1.6 | 6.4 | 0.00 | 0.00 | 0.00 | 25 | 1015.0 |
| 20260508040050 | 18 | 38 | 1.6 | 3.2 | 0.00 | 0.00 | 0.00 | 26 | 1015.0 |
| 20260508035549 | 18 | 38 | 0.0 | 6.4 | 0.00 | 0.00 | 0.00 | 26 | 1014.9 |
| 20260508035048 | 18 | 38 | 1.6 | 6.4 | 0.00 | 0.00 | 0.00 | 26 | 1014.9 |
| 20260508034549 | 18 | 38 | 1.6 | 4.8 | 0.00 | 0.00 | 0.00 | 25 | 1014.9 |
| 20260508034048 | 18 | 38 | 1.6 | 6.4 | 0.00 | 0.00 | 0.00 | 26 | 1014.8 |
| 20260508033110 | 19 | 25 | 0.0 | 6.4 | 0.00 | 0.00 | 0.00 | 26 | 1014.7 |
| 20260508032546 | 19 | 25 | 1.6 | 6.4 | 0.00 | 0.00 | 0.00 | 27 | 1014.7 |
| 20260508032048 | 19 | 281 | 0.0 | 3.2 | 0.00 | 0.00 | 0.00 | 27 | 1014.5 |
| 20260508031545 | 19 | 281 | 0.0 | 1.6 | 0.00 | 0.00 | 0.00 | 26 | 1014.4 |
| 20260508031049 | 20 | 281 | 0.0 | 1.6 | 0.00 | 0.00 | 0.00 | 26 | 1014.4 |
| 20260508030545 | 20 | 281 | 0.0 | 1.6 | 0.00 | 0.00 | 0.00 | 27 | 1014.4 |
| 20260508030053 | 20 | 281 | 0.0 | 1.6 | 0.00 | 0.00 | 0.00 | 27 | 1014.4 |
| 20260508025544 | 20 | 281 | 0.0 | 3.2 | 0.00 | 0.00 | 0.00 | 24 | 1014.3 |
| 20260508025043 | 21 | 281 | 0.0 | 3.2 | 0.00 | 0.00 | 0.00 | 22 | 1014.2 |
| 20260508024559 | 21 | 281 | 0.0 | 3.2 | 0.00 | 0.00 | 0.00 | 25 | 1014.2 |
| 20260508024046 | 21 | 281 | 0.0 | 1.6 | 0.00 | 0.00 | 0.00 | 22 | 1014.2 |
| 20260508023544 | 21 | 281 | 0.0 | 0.0 | 0.00 | 0.00 | 0.00 | 22 | 1014.2 |
| 20260508023043 | 21 | 281 | 0.0 | 0.0 | 0.00 | 0.00 | 0.00 | 23 | 1014.2 |
| 20260508022544 | 21 | 281 | 0.0 | 0.0 | 0.00 | 0.00 | 0.00 | 22 | 1014.1 |
| 20260508022043 | 21 | 281 | 0.0 | 1.6 | 0.00 | 0.00 | 0.00 | 22 | 1014.0 |
| 20260508021544 | 22 | 281 | 0.0 | 1.6 | 0.00 | 0.00 | 0.00 | 22 | 1014.0 |
| 20260508021044 | 22 | 281 | 0.0 | 1.6 | 0.00 | 0.00 | 0.00 | 22 | 1013.9 |
| 20260508020543 | 22 | 281 | 0.0 | 3.2 | 0.00 | 0.00 | 0.00 | 22 | 1013.9 |
| 20260508015542 | 23 | 281 | 0.0 | 3.2 | 0.00 | 0.00 | 0.00 | 19 | 1013.9 |
| 20260508015041 | 23 | 281 | 0.0 | 3.2 | 0.00 | 0.00 | 0.00 | 23 | 1013.9 |
| 20260508014545 | 23 | 281 | 0.0 | 3.2 | 0.00 | 0.00 | 0.00 | 20 | 1013.8 |
| 20260508014040 | 23 | 281 | 0.0 | 3.2 | 0.00 | 0.00 | 0.00 | 19 | 1013.8 |
| 20260508013541 | 23 | 281 | 1.6 | 3.2 | 0.00 | 0.00 | 0.00 | 17 | 1013.8 |
| 20260508013041 | 23 | 281 | 0.0 | 3.2 | 0.00 | 0.00 | 0.00 | 18 | 1013.7 |
| 20260508012541 | 24 | 281 | 0.0 | 3.2 | 0.00 | 0.00 | 0.00 | 16 | 1013.7 |
| 20260508012041 | 24 | 281 | 0.0 | 3.2 | 0.00 | 0.00 | 0.00 | 16 | 1013.7 |
| 20260508011544 | 25 | 281 | 0.0 | 6.4 | 0.00 | 0.00 | 0.00 | 14 | 1013.7 |
| 20260508011045 | 25 | 281 | 3.2 | 9.7 | 0.00 | 0.00 | 0.00 | 14 | 1013.8 |
| 20260508010539 | 25 | 245 | 3.2 | 8.0 | 0.00 | 0.00 | 0.00 | 15 | 1013.8 |
| 20260508010039 | 25 | 300 | 3.2 | 8.0 | 0.00 | 0.00 | 0.00 | 14 | 1013.8 |
| 20260508005538 | 25 | 252 | 3.2 | 9.7 | 0.00 | 0.00 | 0.00 | 14 | 1013.9 |
| 20260508005039 | 25 | 264 | 4.8 | 9.7 | 0.00 | 0.00 | 0.00 | 14 | 1013.9 |
| 20260508004538 | 25 | 248 | 3.2 | 12.9 | 0.00 | 0.00 | 0.00 | 14 | 1013.9 |
| 20260508004038 | 26 | 198 | 6.4 | 12.9 | 0.00 | 0.00 | 0.00 | 14 | 1013.9 |
| 20260508003537 | 26 | 265 | 1.6 | 9.7 | 0.00 | 0.00 | 0.00 | 14 | 1013.9 |
| 20260508003037 | 26 | 248 | 3.2 | 12.9 | 0.00 | 0.00 | 0.00 | 14 | 1013.9 |
| 20260508002536 | 26 | 238 | 4.8 | 16.1 | 0.00 | 0.00 | 0.00 | 14 | 1013.9 |
| 20260508002036 | 26 | 178 | 9.7 | 19.3 | 0.00 | 0.00 | 0.00 | 13 | 1014.0 |
| 20260508001547 | 26 | 194 | 9.7 | 19.3 | 0.00 | 0.00 | 0.00 | 14 | 1013.9 |
| 20260508001036 | 26 | 127 | 1.6 | 17.7 | 0.00 | 0.00 | 0.00 | 15 | 1013.9 |
| 20260508000535 | 26 | 217 | 9.7 | 17.7 | 0.00 | 0.00 | 0.00 | 14 | 1014.0 |
| 20260508000034 | 26 | 192 | 6.4 | 14.5 | 0.00 | 0.00 | 0.00 | 14 | 1014.0 |
| 20260507235534 | 26 | 175 | 8.0 | 16.1 | 0.00 | 0.00 | 0.00 | 15 | 1014.1 |
| 20260507235034 | 26 | 170 | 8.0 | 19.3 | 0.00 | 0.00 | 0.00 | 14 | 1014.0 |
| 20260507234533 | 26 | 195 | 8.0 | 19.3 | 0.00 | 0.00 | 0.00 | 14 | 1014.1 |
| 20260507234032 | 26 | 171 | 3.2 | 12.9 | 0.00 | 0.00 | 0.00 | 14 | 1014.1 |
| 20260507233531 | 26 | 211 | 6.4 | 14.5 | 0.00 | 0.00 | 0.00 | 14 | 1014.1 |
| 20260507233034 | 26 | 215 | 8.0 | 14.5 | 0.00 | 0.00 | 0.00 | 14 | 1014.2 |
| 20260507232531 | 26 | 247 | 9.7 | 14.5 | 0.00 | 0.00 | 0.00 | 14 | 1014.1 |
| 20260507232030 | 27 | 237 | 6.4 | 14.5 | 0.00 | 0.00 | 0.00 | 14 | 1014.2 |
| 20260507231529 | 27 | 210 | 4.8 | 12.9 | 0.00 | 0.00 | 0.00 | 15 | 1014.1 |
| 20260507231029 | 27 | 266 | 3.2 | 19.3 | 0.00 | 0.00 | 0.00 | 14 | 1014.2 |
| 20260507230529 | 27 | 261 | 3.2 | 9.7 | 0.00 | 0.00 | 0.00 | 13 | 1014.3 |
| 20260507230032 | 27 | 302 | 3.2 | 12.9 | 0.00 | 0.00 | 0.00 | 14 | 1014.3 |
| 20260507225528 | 26 | 169 | 6.4 | 12.9 | 0.00 | 0.00 | 0.00 | 13 | 1014.4 |
| 20260507225027 | 27 | 138 | 6.4 | 14.5 | 0.00 | 0.00 | 0.00 | 13 | 1014.3 |
| 20260507224531 | 26 | 161 | 6.4 | 19.3 | 0.00 | 0.00 | 0.00 | 13 | 1014.4 |
| 20260507224027 | 27 | 202 | 9.7 | 19.3 | 0.00 | 0.00 | 0.00 | 14 | 1014.4 |
| 20260507223525 | 27 | 137 | 9.7 | 20.9 | 0.00 | 0.00 | 0.00 | 13 | 1014.5 |
| 20260507223025 | 27 | 194 | 11.3 | 20.9 | 0.00 | 0.00 | 0.00 | 14 | 1014.4 |
| 20260507222527 | 27 | 152 | 11.3 | 17.7 | 0.00 | 0.00 | 0.00 | 14 | 1014.5 |
| 20260507222023 | 26 | 116 | 8.0 | 20.9 | 0.00 | 0.00 | 0.00 | 14 | 1014.5 |
| 20260507221525 | 26 | 196 | 9.7 | 20.9 | 0.00 | 0.00 | 0.00 | 14 | 1014.7 |
| 20260507221022 | 27 | 212 | 8.0 | 19.3 | 0.00 | 0.00 | 0.00 | 15 | 1014.6 |
| 20260507220521 | 27 | 220 | 9.7 | 19.3 | 0.00 | 0.00 | 0.00 | 14 | 1014.7 |
| 20260507220021 | 27 | 170 | 9.7 | 19.3 | 0.00 | 0.00 | 0.00 | 14 | 1014.7 |
| 20260507215520 | 27 | 193 | 11.3 | 16.1 | 0.00 | 0.00 | 0.00 | 14 | 1014.8 |
| 20260507215020 | 27 | 211 | 6.4 | 12.9 | 0.00 | 0.00 | 0.00 | 14 | 1014.8 |
| 20260507214519 | 27 | 101 | 6.4 | 12.9 | 0.00 | 0.00 | 0.00 | 15 | 1014.8 |
| 20260507214019 | 27 | 300 | 6.4 | 12.9 | 0.00 | 0.00 | 0.00 | 15 | 1014.9 |
| 20260507213518 | 27 | 207 | 6.4 | 17.7 | 0.00 | 0.00 | 0.00 | 14 | 1015.0 |
| 20260507213020 | 27 | 215 | 8.0 | 17.7 | 0.00 | 0.00 | 0.00 | 15 | 1015.0 |
| 20260507212519 | 27 | 261 | 6.4 | 17.7 | 0.00 | 0.00 | 0.00 | 13 | 1015.0 |
| 20260507212022 | 27 | 213 | 9.7 | 17.7 | 0.00 | 0.00 | 0.00 | 15 | 1015.0 |
| 20260507211529 | 27 | 180 | 3.2 | 12.9 | 0.00 | 0.00 | 0.00 | 16 | 1015.1 |
| 20260507211016 | 27 | 166 | 6.4 | 11.3 | 0.00 | 0.00 | 0.00 | 15 | 1015.1 |
| 20260507210514 | 27 | 69 | 3.2 | 11.3 | 0.00 | 0.00 | 0.00 | 16 | 1015.2 |
| 20260507210014 | 26 | 63 | 1.6 | 8.0 | 0.00 | 0.00 | 0.00 | 16 | 1015.2 |
| 20260507205512 | 26 | 174 | 1.6 | 6.4 | 0.00 | 0.00 | 0.00 | 16 | 1015.3 |
| 20260507205014 | 26 | 348 | 1.6 | 9.7 | 0.00 | 0.00 | 0.00 | 16 | 1015.3 |
| 20260507204511 | 26 | 337 | 3.2 | 14.5 | 0.00 | 0.00 | 0.00 | 16 | 1015.4 |
| 20260507204010 | 26 | 194 | 8.0 | 14.5 | 0.00 | 0.00 | 0.00 | 16 | 1015.5 |
| 20260507203510 | 27 | 265 | 8.0 | 12.9 | 0.00 | 0.00 | 0.00 | 17 | 1015.5 |
| 20260507203008 | 26 | 323 | 4.8 | 12.9 | 0.00 | 0.00 | 0.00 | 17 | 1015.5 |
| 20260507202507 | 26 | 264 | 6.4 | 12.9 | 0.00 | 0.00 | 0.00 | 17 | 1015.7 |
| 20260507202007 | 26 | 224 | 3.2 | 14.5 | 0.00 | 0.00 | 0.00 | 17 | 1015.8 |
| 20260507201506 | 26 | 178 | 8.0 | 16.1 | 0.00 | 0.00 | 0.00 | 18 | 1015.8 |
| 20260507201005 | 26 | 17 | 1.6 | 16.1 | 0.00 | 0.00 | 0.00 | 18 | 1015.9 |
| 20260507200504 | 26 | 133 | 3.2 | 16.1 | 0.00 | 0.00 | 0.00 | 18 | 1016.1 |
| 20260507200002 | 26 | 194 | 6.4 | 11.3 | 0.00 | 0.00 | 0.00 | 18 | 1016.1 |
| 20260507195501 | 26 | 167 | 3.2 | 12.9 | 0.00 | 0.00 | 0.00 | 18 | 1016.2 |
| 20260507195001 | 26 | 210 | 8.0 | 14.5 | 0.00 | 0.00 | 0.00 | 18 | 1016.2 |
| 20260507194613 | 26 | 130 | 6.4 | 14.5 | 0.00 | 0.00 | 0.00 | 18 | 1016.3 |
| 20260507194059 | 26 | 187 | 6.4 | 16.1 | 0.00 | 0.00 | 0.00 | 18 | 1016.4 |
| 20260507193600 | 26 | 272 | 8.0 | 16.1 | 0.00 | 0.00 | 0.00 | 19 | 1016.4 |
| 20260507193100 | 26 | 186 | 3.2 | 12.9 | 0.00 | 0.00 | 0.00 | 20 | 1016.5 |
| 20260507192556 | 25 | 148 | 4.8 | 17.7 | 0.00 | 0.00 | 0.00 | 18 | 1016.6 |
| 20260507192056 | 26 | 195 | 9.7 | 17.7 | 0.00 | 0.00 | 0.00 | 19 | 1016.6 |
| 20260507191602 | 25 | 123 | 9.7 | 16.1 | 0.00 | 0.00 | 0.00 | 19 | 1016.6 |
| 20260507191054 | 25 | 215 | 8.0 | 12.9 | 0.00 | 0.00 | 0.00 | 19 | 1016.8 |
| 20260507190553 | 25 | 169 | 3.2 | 16.1 | 0.00 | 0.00 | 0.00 | 19 | 1016.8 |
| 20260507190053 | 25 | 168 | 11.3 | 16.1 | 0.00 | 0.00 | 0.00 | 19 | 1016.9 |
| 20260507185552 | 25 | 148 | 4.8 | 12.9 | 0.00 | 0.00 | 0.00 | 20 | 1017.0 |
| 20260507185053 | 25 | 175 | 3.2 | 16.1 | 0.00 | 0.00 | 0.00 | 19 | 1017.0 |
| 20260507184550 | 25 | 163 | 8.0 | 16.1 | 0.00 | 0.00 | 0.00 | 20 | 1017.0 |
| 20260507184051 | 24 | 132 | 8.0 | 14.5 | 0.00 | 0.00 | 0.00 | 21 | 1017.1 |
| 20260507183549 | 25 | 184 | 4.8 | 9.7 | 0.00 | 0.00 | 0.00 | 22 | 1017.1 |
| 20260507183055 | 25 | 216 | 3.2 | 9.7 | 0.00 | 0.00 | 0.00 | 22 | 1017.2 |
| 20260507182548 | 25 | 56 | 3.2 | 12.9 | 0.00 | 0.00 | 0.00 | 22 | 1017.2 |
| 20260507182047 | 24 | 297 | 6.4 | 12.9 | 0.00 | 0.00 | 0.00 | 22 | 1017.3 |
| 20260507181547 | 24 | 203 | 4.8 | 11.3 | 0.00 | 0.00 | 0.00 | 24 | 1017.4 |
| 20260507181045 | 23 | 234 | 4.8 | 11.3 | 0.00 | 0.00 | 0.00 | 23 | 1017.4 |
| 20260507180547 | 23 | 221 | 3.2 | 11.3 | 0.00 | 0.00 | 0.00 | 23 | 1017.5 |
| 20260507180050 | 23 | 192 | 4.8 | 12.9 | 0.00 | 0.00 | 0.00 | 23 | 1017.5 |
| 20260507175541 | 23 | 191 | 4.8 | 12.9 | 0.00 | 0.00 | 0.00 | 24 | 1017.6 |
| 20260507175039 | 23 | 276 | 6.4 | 11.3 | 0.00 | 0.00 | 0.00 | 24 | 1017.7 |
| 20260507174538 | 23 | 217 | 4.8 | 11.3 | 0.00 | 0.00 | 0.00 | 24 | 1017.7 |
| 20260507174037 | 23 | 146 | 1.6 | 11.3 | 0.00 | 0.00 | 0.00 | 26 | 1017.8 |
| 20260507173538 | 23 | 176 | 4.8 | 11.3 | 0.00 | 0.00 | 0.00 | 26 | 1017.8 |
| 20260507173046 | 22 | 227 | 4.8 | 12.9 | 0.00 | 0.00 | 0.00 | 25 | 1017.9 |
| 20260507172532 | 22 | 189 | 3.2 | 9.7 | 0.00 | 0.00 | 0.00 | 25 | 1017.9 |
| 20260507172031 | 22 | 159 | 3.2 | 11.3 | 0.00 | 0.00 | 0.00 | 26 | 1017.9 |
| 20260507171533 | 22 | 191 | 6.4 | 11.3 | 0.00 | 0.00 | 0.00 | 26 | 1017.9 |
| 20260507171029 | 22 | 184 | 4.8 | 9.7 | 0.00 | 0.00 | 0.00 | 27 | 1018.0 |
| 20260507170530 | 21 | 263 | 6.4 | 9.7 | 0.00 | 0.00 | 0.00 | 26 | 1018.1 |
| 20260507170042 | 21 | 214 | 3.2 | 8.0 | 0.00 | 0.00 | 0.00 | 27 | 1018.2 |
| 20260507165524 | 21 | 235 | 1.6 | 8.0 | 0.00 | 0.00 | 0.00 | 29 | 1018.2 |
| 20260507165023 | 21 | 196 | 4.8 | 9.7 | 0.00 | 0.00 | 0.00 | 27 | 1018.2 |
| 20260507164523 | 21 | 234 | 4.8 | 9.7 | 0.00 | 0.00 | 0.00 | 27 | 1018.2 |
| 20260507164021 | 21 | 198 | 3.2 | 11.3 | 0.00 | 0.00 | 0.00 | 30 | 1018.2 |
| 20260507163520 | 20 | 177 | 3.2 | 11.3 | 0.00 | 0.00 | 0.00 | 29 | 1018.4 |
| 20260507163017 | 20 | 171 | 4.8 | 11.3 | 0.00 | 0.00 | 0.00 | 30 | 1018.4 |
| 20260507162517 | 20 | 276 | 4.8 | 12.9 | 0.00 | 0.00 | 0.00 | 29 | 1018.4 |
| 20260507162017 | 21 | 231 | 6.4 | 12.9 | 0.00 | 0.00 | 0.00 | 30 | 1018.5 |
| 20260507161514 | 20 | 41 | 3.2 | 9.7 | 0.00 | 0.00 | 0.00 | 27 | 1018.6 |
| 20260507161012 | 20 | 42 | 3.2 | 8.0 | 0.00 | 0.00 | 0.00 | 30 | 1018.7 |
| 20260507160512 | 19 | 17 | 1.6 | 8.0 | 0.00 | 0.00 | 0.00 | 30 | 1018.7 |
| 20260507160010 | 19 | 360 | 3.2 | 9.7 | 0.00 | 0.00 | 0.00 | 31 | 1018.8 |
| 20260507155509 | 18 | 7 | 0.0 | 9.7 | 0.00 | 0.00 | 0.00 | 31 | 1018.8 |
| 20260507155007 | 18 | 14 | 0.0 | 8.0 | 0.00 | 0.00 | 0.00 | 31 | 1018.9 |
| 20260507154507 | 18 | 72 | 3.2 | 11.3 | 0.00 | 0.00 | 0.00 | 33 | 1018.8 |
| 20260507154004 | 18 | 59 | 4.8 | 11.3 | 0.00 | 0.00 | 0.00 | 34 | 1018.8 |
| 20260507153504 | 17 | 38 | 0.0 | 9.7 | 0.00 | 0.00 | 0.00 | 34 | 1018.8 |
| 20260507153001 | 17 | 347 | 3.2 | 9.7 | 0.00 | 0.00 | 0.00 | 35 | 1018.9 |
| 20260507152601 | 17 | 316 | 4.8 | 9.7 | 0.00 | 0.00 | 0.00 | 35 | 1018.9 |
| 20260507152059 | 17 | 19 | 4.8 | 9.7 | 0.00 | 0.00 | 0.00 | 34 | 1018.9 |
| 20260507151558 | 17 | 45 | 1.6 | 9.7 | 0.00 | 0.00 | 0.00 | 36 | 1018.9 |
| 20260507151055 | 16 | 355 | 4.8 | 9.7 | 0.00 | 0.00 | 0.00 | 36 | 1018.9 |
| 20260507150555 | 16 | 55 | 4.8 | 9.7 | 0.00 | 0.00 | 0.00 | 38 | 1018.9 |
| 20260507150100 | 16 | 24 | 4.8 | 11.3 | 0.00 | 0.00 | 0.00 | 38 | 1018.9 |
| 20260507145551 | 16 | 41 | 4.8 | 12.9 | 0.00 | 0.00 | 0.00 | 38 | 1019.0 |
| 20260507145049 | 15 | 2 | 6.4 | 12.9 | 0.00 | 0.00 | 0.00 | 38 | 1018.9 |
| 20260507144548 | 15 | 35 | 3.2 | 12.9 | 0.00 | 0.00 | 0.00 | 40 | 1019.0 |
| 20260507144048 | 15 | 38 | 4.8 | 12.9 | 0.00 | 0.00 | 0.00 | 40 | 1019.1 |
| 20260507143546 | 15 | 39 | 4.8 | 12.9 | 0.00 | 0.00 | 0.00 | 41 | 1019.1 |
| 20260507143057 | 14 | 44 | 3.2 | 11.3 | 0.00 | 0.00 | 0.00 | 41 | 1019.0 |
| 20260507142543 | 14 | 33 | 3.2 | 11.3 | 0.00 | 0.00 | 0.00 | 41 | 1019.1 |
| 20260507142042 | 13 | 24 | 3.2 | 11.3 | 0.00 | 0.00 | 0.00 | 41 | 1019.1 |
| 20260507141542 | 13 | 15 | 3.2 | 9.7 | 0.00 | 0.00 | 0.00 | 41 | 1019.2 |
| 20260507141041 | 13 | 44 | 1.6 | 9.7 | 0.00 | 0.00 | 0.00 | 42 | 1019.2 |
| 20260507140541 | 13 | 33 | 1.6 | 11.3 | 0.00 | 0.00 | 0.00 | 42 | 1019.1 |
| 20260507140041 | 13 | 28 | 3.2 | 11.3 | 0.00 | 0.00 | 0.00 | 42 | 1019.2 |
| 20260507135544 | 13 | 32 | 1.6 | 11.3 | 0.00 | 0.00 | 0.00 | 43 | 1019.1 |
| 20260507135039 | 12 | 63 | 4.8 | 9.7 | 0.00 | 0.00 | 0.00 | 44 | 1019.1 |
| 20260507134539 | 12 | 55 | 4.8 | 9.7 | 0.00 | 0.00 | 0.00 | 44 | 1019.1 |
| 20260507134037 | 12 | 79 | 3.2 | 11.3 | 0.00 | 0.00 | 0.00 | 44 | 1019.0 |
| 20260507133537 | 12 | 49 | 4.8 | 11.3 | 0.00 | 0.00 | 0.00 | 44 | 1018.9 |
| 20260507133044 | 12 | 47 | 1.6 | 9.7 | 0.00 | 0.00 | 0.00 | 44 | 1018.8 |
| 20260507132535 | 12 | 44 | 3.2 | 11.3 | 0.00 | 0.00 | 0.00 | 44 | 1018.7 |
| 20260507132034 | 11 | 19 | 3.2 | 11.3 | 0.00 | 0.00 | 0.00 | 44 | 1018.6 |
| 20260507131540 | 11 | 3 | 3.2 | 11.3 | 0.00 | 0.00 | 0.00 | 44 | 1018.5 |
| 20260507131033 | 11 | 30 | 6.4 | 11.3 | 0.00 | 0.00 | 0.00 | 44 | 1018.5 |
| 20260507130532 | 11 | 15 | 6.4 | 12.9 | 0.00 | 0.00 | 0.00 | 44 | 1018.4 |
| 20260507130036 | 11 | 11 | 6.4 | 12.9 | 0.00 | 0.00 | 0.00 | 44 | 1018.4 |
| 20260507125530 | 11 | 24 | 3.2 | 12.9 | 0.00 | 0.00 | 0.00 | 43 | 1018.4 |
| 20260507125030 | 10 | 53 | 4.8 | 9.7 | 0.00 | 0.00 | 0.00 | 43 | 1018.4 |
| 20260507124530 | 10 | 19 | 1.6 | 11.3 | 0.00 | 0.00 | 0.00 | 42 | 1018.4 |
| 20260507124030 | 11 | 20 | 4.8 | 11.3 | 0.00 | 0.00 | 0.00 | 42 | 1018.4 |
| 20260507123528 | 10 | 8 | 4.8 | 9.7 | 0.00 | 0.00 | 0.00 | 42 | 1018.2 |
| 20260507123026 | 10 | 36 | 3.2 | 8.0 | 0.00 | 0.00 | 0.00 | 42 | 1018.2 |
| 20260507122526 | 10 | 30 | 3.2 | 8.0 | 0.00 | 0.00 | 0.00 | 41 | 1018.2 |
| 20260507122026 | 10 | 38 | 1.6 | 6.4 | 0.00 | 0.00 | 0.00 | 40 | 1018.2 |
| 20260507121526 | 10 | 36 | 3.2 | 9.7 | 0.00 | 0.00 | 0.00 | 39 | 1018.1 |
| 20260507121025 | 10 | 7 | 3.2 | 11.3 | 0.00 | 0.00 | 0.00 | 39 | 1018.1 |
| 20260507120523 | 10 | 31 | 4.8 | 11.3 | 0.00 | 0.00 | 0.00 | 39 | 1018.1 |
| 20260507120023 | 10 | 32 | 1.6 | 9.7 | 0.00 | 0.00 | 0.00 | 39 | 1018.1 |
| 20260507115526 | 10 | 38 | 3.2 | 8.0 | 0.00 | 0.00 | 0.00 | 38 | 1018.0 |
| 20260507115021 | 10 | 57 | 3.2 | 9.7 | 0.00 | 0.00 | 0.00 | 37 | 1017.9 |
| 20260507114521 | 10 | 47 | 4.8 | 9.7 | 0.00 | 0.00 | 0.00 | 36 | 1018.0 |
| 20260507114019 | 10 | 32 | 1.6 | 9.7 | 0.00 | 0.00 | 0.00 | 35 | 1017.9 |
| 20260507113519 | 10 | 48 | 1.6 | 8.0 | 0.00 | 0.00 | 0.00 | 34 | 1018.0 |
| 20260507113025 | 10 | 66 | 1.6 | 4.8 | 0.00 | 0.00 | 0.00 | 34 | 1017.9 |
| 20260507112519 | 10 | 56 | 0.0 | 8.0 | 0.00 | 0.00 | 0.00 | 32 | 1017.9 |
| 20260507112018 | 10 | 58 | 3.2 | 8.0 | 0.00 | 0.00 | 0.00 | 33 | 1017.9 |
| 20260507111518 | 10 | 49 | 1.6 | 8.0 | 0.00 | 0.00 | 0.00 | 32 | 1017.9 |
| 20260507111015 | 10 | 63 | 3.2 | 8.0 | 0.00 | 0.00 | 0.00 | 32 | 1018.0 |
| 20260507110514 | 10 | 65 | 3.2 | 9.7 | 0.00 | 0.00 | 0.00 | 31 | 1018.0 |
| 20260507110014 | 10 | 42 | 1.6 | 9.7 | 0.00 | 0.00 | 0.00 | 30 | 1017.9 |
| 20260507105511 | 11 | 46 | 0.0 | 4.8 | 0.00 | 0.00 | 0.00 | 30 | 1018.0 |
| 20260507105011 | 11 | 46 | 0.0 | 3.2 | 0.00 | 0.00 | 0.00 | 29 | 1017.8 |
| 20260507104510 | 11 | 46 | 0.0 | 3.2 | 0.00 | 0.00 | 0.00 | 29 | 1017.8 |
| 20260507104010 | 11 | 46 | 0.0 | 6.4 | 0.00 | 0.00 | 0.00 | 29 | 1017.8 |
| 20260507103509 | 11 | 46 | 1.6 | 6.4 | 0.00 | 0.00 | 0.00 | 28 | 1017.8 |
| 20260507103009 | 11 | 46 | 1.6 | 3.2 | 0.00 | 0.00 | 0.00 | 29 | 1017.7 |
| 20260507102508 | 11 | 46 | 0.0 | 8.0 | 0.00 | 0.00 | 0.00 | 28 | 1017.8 |
| 20260507102008 | 11 | 46 | 1.6 | 9.7 | 0.00 | 0.00 | 0.00 | 28 | 1017.8 |
| 20260507101507 | 11 | 58 | 3.2 | 9.7 | 0.00 | 0.00 | 0.00 | 28 | 1017.7 |
| 20260507101005 | 12 | 51 | 1.6 | 6.4 | 0.00 | 0.00 | 0.00 | 27 | 1017.6 |
| 20260507100506 | 12 | 49 | 0.0 | 11.3 | 0.00 | 0.00 | 0.00 | 26 | 1017.5 |
| 20260507100010 | 12 | 51 | 3.2 | 12.9 | 0.00 | 0.00 | 0.00 | 26 | 1017.5 |
| 20260507095506 | 13 | 7 | 6.4 | 12.9 | 0.00 | 0.00 | 0.00 | 25 | 1017.4 |
| 20260507095003 | 13 | 49 | 6.4 | 11.3 | 0.00 | 0.00 | 0.00 | 25 | 1017.4 |
| 20260507094502 | 13 | 38 | 4.8 | 12.9 | 0.00 | 0.00 | 0.00 | 24 | 1017.4 |
| 20260507094002 | 13 | 31 | 4.8 | 12.9 | 0.00 | 0.00 | 0.00 | 24 | 1017.3 |
| 20260507093501 | 13 | 11 | 6.4 | 14.5 | 0.00 | 0.00 | 0.00 | 23 | 1017.3 |
| 20260507093003 | 13 | 355 | 6.4 | 11.3 | 0.00 | 0.00 | 0.00 | 23 | 1017.3 |
| 20260507092502 | 13 | 17 | 1.6 | 9.7 | 0.00 | 0.00 | 0.00 | 23 | 1017.3 |
| 20260507092100 | 13 | 10 | 4.8 | 11.3 | 0.00 | 0.00 | 0.00 | 23 | 1017.3 |
| 20260507091600 | 13 | 3 | 4.8 | 11.3 | 0.00 | 0.00 | 0.00 | 24 | 1017.2 |
| 20260507091100 | 12 | 17 | 3.2 | 8.0 | 0.00 | 0.00 | 0.00 | 28 | 1017.3 |
| 20260507090600 | 12 | 16 | 0.0 | 1.6 | 0.00 | 0.00 | 0.00 | 30 | 1017.3 |
| 20260507090101 | 12 | 16 | 0.0 | 3.2 | 0.00 | 0.00 | 0.00 | 29 | 1017.3 |
| 20260507085556 | 12 | 16 | 0.0 | 3.2 | 0.00 | 0.00 | 0.00 | 27 | 1017.3 |
| 20260507085056 | 13 | 16 | 0.0 | 3.2 | 0.00 | 0.00 | 0.00 | 26 | 1017.3 |
| 20260507084605 | 13 | 15 | 0.0 | 6.4 | 0.00 | 0.00 | 0.00 | 25 | 1017.3 |
| 20260507084055 | 13 | 13 | 0.0 | 8.0 | 0.00 | 0.00 | 0.00 | 23 | 1017.3 |
| 20260507083557 | 14 | 13 | 3.2 | 9.7 | 0.00 | 0.00 | 0.00 | 22 | 1017.2 |
| 20260507083055 | 13 | 20 | 4.8 | 9.7 | 0.00 | 0.00 | 0.00 | 23 | 1017.2 |
| 20260507082555 | 14 | 36 | 3.2 | 11.3 | 0.00 | 0.00 | 0.00 | 23 | 1017.2 |
| 20260507082054 | 14 | 14 | 3.2 | 8.0 | 0.00 | 0.00 | 0.00 | 22 | 1017.2 |
| 20260507081558 | 13 | 22 | 1.6 | 4.8 | 0.00 | 0.00 | 0.00 | 23 | 1017.3 |
| 20260507081054 | 13 | 30 | 1.6 | 6.4 | 0.00 | 0.00 | 0.00 | 26 | 1017.3 |
| 20260507080553 | 13 | 30 | 1.6 | 8.0 | 0.00 | 0.00 | 0.00 | 25 | 1017.4 |
| 20260507080055 | 13 | 27 | 1.6 | 8.0 | 0.00 | 0.00 | 0.00 | 24 | 1017.2 |
| 20260507075557 | 13 | 14 | 3.2 | 9.7 | 0.00 | 0.00 | 0.00 | 23 | 1017.2 |
| 20260507075052 | 14 | 15 | 4.8 | 11.3 | 0.00 | 0.00 | 0.00 | 23 | 1017.2 |
| 20260507074552 | 14 | 14 | 4.8 | 11.3 | 0.00 | 0.00 | 0.00 | 22 | 1017.2 |
| 20260507074051 | 15 | 18 | 4.8 | 11.3 | 0.00 | 0.00 | 0.00 | 22 | 1017.2 |
| 20260507073549 | 14 | 6 | 4.8 | 11.3 | 0.00 | 0.00 | 0.00 | 22 | 1017.2 |
| 20260507073049 | 14 | 14 | 4.8 | 8.0 | 0.00 | 0.00 | 0.00 | 23 | 1017.4 |
| 20260507072548 | 13 | 26 | 1.6 | 4.8 | 0.00 | 0.00 | 0.00 | 23 | 1017.4 |
| 20260507072048 | 13 | 59 | 0.0 | 6.4 | 0.00 | 0.00 | 0.00 | 25 | 1017.4 |
| 20260507071549 | 13 | 59 | 0.0 | 3.2 | 0.00 | 0.00 | 0.00 | 24 | 1017.5 |
| 20260507071047 | 13 | 59 | 0.0 | 8.0 | 0.00 | 0.00 | 0.00 | 26 | 1017.5 |
| 20260507070547 | 13 | 59 | 0.0 | 8.0 | 0.00 | 0.00 | 0.00 | 27 | 1017.4 |
| 20260507070101 | 13 | 34 | 0.0 | 6.4 | 0.00 | 0.00 | 0.00 | 27 | 1017.4 |
| 20260507065545 | 13 | 33 | 0.0 | 3.2 | 0.00 | 0.00 | 0.00 | 27 | 1017.4 |
| 20260507065044 | 13 | 33 | 0.0 | 1.6 | 0.00 | 0.00 | 0.00 | 27 | 1017.4 |
| 20260507064551 | 13 | 33 | 0.0 | 8.0 | 0.00 | 0.00 | 0.00 | 26 | 1017.4 |
| 20260507064043 | 13 | 33 | 0.0 | 8.0 | 0.00 | 0.00 | 0.00 | 26 | 1017.4 |
| 20260507063542 | 14 | 21 | 0.0 | 6.4 | 0.00 | 0.00 | 0.00 | 24 | 1017.5 |
| 20260507063042 | 13 | 21 | 1.6 | 6.4 | 0.00 | 0.00 | 0.00 | 24 | 1017.4 |
| 20260507062545 | 13 | 22 | 0.0 | 6.4 | 0.00 | 0.00 | 0.00 | 26 | 1017.4 |
| 20260507062041 | 13 | 22 | 0.0 | 6.4 | 0.00 | 0.00 | 0.00 | 26 | 1017.4 |
| 20260507061540 | 14 | 22 | 0.0 | 6.4 | 0.00 | 0.00 | 0.00 | 25 | 1017.5 |
| 20260507061038 | 15 | 22 | 0.0 | 6.4 | 0.00 | 0.00 | 0.00 | 22 | 1017.5 |
| 20260507060539 | 15 | 22 | 3.2 | 6.4 | 0.00 | 0.00 | 0.00 | 22 | 1017.5 |
| 20260507060037 | 14 | 28 | 0.0 | 3.2 | 0.00 | 0.00 | 0.00 | 23 | 1017.6 |
| 20260507055536 | 14 | 28 | 0.0 | 6.4 | 0.00 | 0.00 | 0.00 | 24 | 1017.6 |
| 20260507055035 | 14 | 28 | 0.0 | 6.4 | 0.00 | 0.00 | 0.00 | 23 | 1017.6 |
| 20260507054545 | 15 | 25 | 1.6 | 4.8 | 0.00 | 0.00 | 0.00 | 23 | 1017.5 |
| 20260507054034 | 15 | 25 | 0.0 | 3.2 | 0.00 | 0.00 | 0.00 | 22 | 1017.3 |
| 20260507053536 | 15 | 25 | 0.0 | 3.2 | 0.00 | 0.00 | 0.00 | 22 | 1017.3 |
| 20260507053034 | 15 | 24 | 0.0 | 6.4 | 0.00 | 0.00 | 0.00 | 21 | 1017.3 |
| 20260507052533 | 16 | 24 | 1.6 | 6.4 | 0.00 | 0.00 | 0.00 | 20 | 1017.3 |
| 20260507052033 | 16 | 30 | 1.6 | 6.4 | 0.00 | 0.00 | 0.00 | 20 | 1017.3 |
| 20260507051534 | 15 | 7 | 3.2 | 4.8 | 0.00 | 0.00 | 0.00 | 21 | 1017.3 |
| 20260507051033 | 15 | 269 | 0.0 | 1.6 | 0.00 | 0.00 | 0.00 | 24 | 1017.3 |
| 20260507050534 | 16 | 269 | 0.0 | 6.4 | 0.00 | 0.00 | 0.00 | 23 | 1017.3 |
| 20260507050042 | 16 | 269 | 1.6 | 8.0 | 0.00 | 0.00 | 0.00 | 20 | 1017.3 |
| 20260507045532 | 16 | 17 | 0.0 | 6.4 | 0.00 | 0.00 | 0.00 | 21 | 1017.2 |
| 20260507045032 | 16 | 340 | 0.0 | 6.4 | 0.00 | 0.00 | 0.00 | 20 | 1017.2 |
| 20260507044534 | 16 | 1 | 0.0 | 8.0 | 0.00 | 0.00 | 0.00 | 19 | 1017.1 |
| 20260507044031 | 16 | 22 | 3.2 | 8.0 | 0.00 | 0.00 | 0.00 | 20 | 1017.1 |
| 20260507043531 | 16 | 355 | 1.6 | 3.2 | 0.00 | 0.00 | 0.00 | 22 | 1017.1 |
| 20260507043030 | 16 | 38 | 0.0 | 6.4 | 0.00 | 0.00 | 0.00 | 21 | 1017.1 |
| 20260507042531 | 16 | 30 | 0.0 | 3.2 | 0.00 | 0.00 | 0.00 | 19 | 1017.1 |
| 20260507042031 | 16 | 30 | 0.0 | 6.4 | 0.00 | 0.00 | 0.00 | 19 | 1016.9 |